Tracking 28799 objects as of 18-Apr-2024
HD Live streaming from Space Station
objects crossing your sky now

TITAN 3C TRANSTAGE DEB

Track TITAN 3C TRANSTAGE DEB now!
10-day predictions


NORAD ID: 3978
Int'l Code: 1965-082SE
Perigee: 650.5 km
Apogee: 700.4 km
Inclination: 32.6 °
Period: 98.1 minutes
Semi major axis: 7046 km
RCS: 0.0084 m2 (small)
Launch date: October 15, 1965
Source: United States (US)
Launch site: AIR FORCE EASTERN TEST RANGE (AFETR)

Note: This is SATELLITE DEBRIS
Your satellite tracking list
Your tracking list is empty




NASA's NSSDC Master Catalog

Two Line Element Set (TLE):
1  3978U 65082SE  24106.87818925  .00001983  00000-0  33415-3 0  9999
2  3978  32.5661 307.5627 0035426  32.9031 327.3820 14.67722841330722
Source of the keplerian elements: AFSPC